Location: Chmeli�t?
(49.8978°N, 15.0526°E)
Time: 07:55:56
(UTC+00:00)

Cosmos 2074 Rocket - Pass Details

Date: 08 October 2020
Orbit: 967 x 987 km, 82.9° (Epoch: 30 October)

Event Time Altitude Azimuth Distance (km) Brightness Sun altitude
Rises 22:07:50 0° 345° (NNW) 3,690 7.8 -45.7°
Reaches altitude 10° 22:10:30 10° 338° (NNW) 2,734 6.9 -45.8°
Enters shadow 22:12:02 18° 330° (NNW) 2,229 6.3 -45.8°
